Preview of NWS' New Version of Forecast
This preview is not operational and should not be used for support decisions.

Regional Weather Roundup (RWR)

Issued by Gray - Portland, ME (GYX)

                            
000
ASUS41 KGYX 221605
RWRGYX
WEATHER ROUNDUP FOR MAINE AND NEW HAMPSHIRE
NATIONAL WEATHER SERVICE GRAY ME
1200 PM EDT WED MAY 22 2019

MEZ002-005-006-010-012-015-018-020-021-024-026-027-029-221700-
MAINE
  
CITY           SKY/WX    TMP DP  RH WIND       PRES   REMARKS
PORTLAND       FAIR      62  35  36 NW14G26   30.16R                  
SANFORD        FAIR      63  34  33 W8G20     30.17R                  
BAR HARBOR     CLOUDY    56  39  53 N15G25    30.11R                  
WISCASSET      FAIR      60  34  37 N9G26     30.17R                  
ROCKLAND       PTSUNNY   58  38  47 N8G16     30.14R                  
FRYEBURG       FAIR      61  32  33 N15G24    30.18R                  
LEWISTONAUBURN FAIR      60  35  39 NW12G25   30.16R                  
AUGUSTA        FAIR      59  36  42 NW20G30   30.17R                  
WATERVILLE     CLOUDY    58  37  45 N14G21    30.14R                  
BANGOR         PTSUNNY   57  37  47 N17G25    30.14R                  
GREENVILLE       N/A     50  35  56 NW16G28   30.13S                  
MILLINOCKET    CLOUDY    55  36  48 NW20      30.16R                  
HOULTON        CLOUDY    51  39  63 N16       30.12R                  
PRESQUE ISLE   CLOUDY    50  39  66 N14       30.15R                  
FRENCHVILLE    CLOUDY    50  37  61 N16G24    30.15R                  
CARIBOU        CLOUDY    51  39  63 N14G21    30.14R                  
$$

NHZ002-005-008-009-011-012-014-221700-
NEW HAMPSHIRE
  
CITY           SKY/WX    TMP DP  RH WIND       PRES   REMARKS
ROCHESTER      FAIR      63  33  32 NW16G23   30.17R                  
NASHUA         FAIR      64  34  32 NW14G21   30.19S                  
MANCHESTER     PTSUNNY   65  30  27 N15G24    30.17S                  
CONCORD        FAIR      64  34  32 N16G22    30.19S                  
LACONIA        FAIR      60  33  36 NW13G22   30.19R                  
PLYMOUTH       FAIR      60  33  36 NW14G20   30.20S                  
BERLIN         FAIR      57  34  41 NW12G21   30.20R                  
WHITEFIELD     FAIR      57  35  43 NW13G21   30.21S                  
JAFFREY        FAIR      62  31  31 NW13G22   30.20F                  
KEENE          FAIR      63  32  31 N22       30.20F                  
LEBANON        FAIR      64  33  31 N13G22    30.21F                  
MT WASHINGTON  FOG       27  27 100 NW33G46     N/A  VSB 3/16WCI   9  
$$

VTZ005-007-008-221700-
VERMONT
  
CITY           SKY/WX    TMP DP  RH WIND       PRES   REMARKS
ST JOHNSBURY     N/A     60  33  36 MISG      30.21F                  
MONTPELIER     FAIR      58  33  39 NW10G21   30.28S                  
BURLINGTON     PTSUNNY   61  36  39 N13       30.28F                  
$$

MAZ007-012-024-CTZ003-RIZ002-NYZ038-NYZ072-221700-
SOUTHERN NEW ENGLAND AND NY
  
CITY           SKY/WX    TMP DP  RH WIND       PRES   REMARKS
BOSTON         PTSUNNY   67  35  30 N12G21    30.18R                  
WORCESTER      FAIR      62  35  36 N12G22    30.19S                  
NANTUCKET      FAIR      58  39  49 N16       30.19R                  
PROVIDENCE     PTSUNNY   65  35  33 N10G18    30.19R                  
HARTFORD       PTSUNNY   69  35  28 NE9       30.20S                  
ALBANY         FAIR      66  37  34 N9        30.27S                  
NEW YORK CITY  FAIR      69  34  27 N10       30.24S                  
$$

ANZ081-ANZ082-ANZ150-NHZ014-MEZ023>029-221700-
COASTAL MARINE OBSERVATIONS
  
STATION/POSITION TIME  TEMP    WIND        PRES    WAVE
                       AIR SEA DIR/SP/G            HT/PER
                 (UTC) (F)     (DEG/KT/KT) (MB)    (FT/S)
ISLE OF SHOALS   1500   54      90/  4/  5 1021.1R
JEFFREYS LEDGE   1538      47                N/A     2/ 6
GEORGES BANK BUO 1550   46 44  350/ 17/ 21 1018.5R   7/ 8
$$

.............KEY..............
   WCI - WIND CHILL
   TC  - TEMPERATURE IN CELSIUS
   VSB - VISIBILITY IN MILES
   HX  - HEAT INDEX
   FAIR- INDICATES FEW OR NO CLOUDS BELOW 12,000 FT, WITH NO 
         SIGNIFICANT WEATHER AND/OR OBSTRUCTIONS TO VISIBILITY.